EDT,Max TemperatureF,Mean TemperatureF,Min TemperatureF,Max Dew PointF,MeanDew PointF,Min DewpointF,Max Humidity, Mean Humidity, Min Humidity, Max Sea Level PressureIn, Mean Sea Level PressureIn, Min Sea Level PressureIn, Max VisibilityMiles, Mean VisibilityMiles, Min VisibilityMiles, Max Wind SpeedMPH, Mean Wind SpeedMPH, Max Gust SpeedMPH,PrecipitationIn, CloudCover, Events, WindDirDegrees
2013-7-1,80,72,64,72,67,64,100,91,61,29.99,29.93,29.87,10,7,0,9,1,17,1.18,5,Rain,198
2013-7-2,82,74,66,70,66,63,100,80,58,30.14,30.07,30.00,10,8,1,10,2,16,0.00,2,,189
2013-7-3,80,72,64,70,66,64,100,79,58,30.25,30.20,30.14,10,10,10,10,1,,0.00,0,,199
2013-7-4,84,74,64,73,68,63,100,84,58,30.30,30.23,30.17,10,10,1,7,2,,0.02,1,Rain,219
2013-7-5,84,75,66,73,68,64,100,79,55,30.25,30.22,30.18,10,10,3,13,3,20,0.04,1,Rain,206
2013-7-6,87,76,66,70,67,63,100,75,49,30.26,30.20,30.12,10,10,0,13,2,16,0.00,1,Fog,213
2013-7-7,77,72,66,70,68,66,100,92,69,30.22,30.16,30.11,10,10,2,14,3,22,0.42,3,Rain,222
2013-7-8,78,70,62,72,67,63,100,90,65,30.23,30.19,30.16,10,8,0,10,2,,0.36,3,Fog-Rain,232
2013-7-9,78,73,68,75,71,68,100,95,74,30.19,30.16,30.10,10,8,1,14,2,37,0.52,3,Rain,203
2013-7-10,84,74,64,73,69,63,100,90,62,30.13,30.04,29.95,10,8,1,25,5,40,0.80,2,Rain,200
2013-7-11,75,70,64,68,66,63,100,91,78,30.04,30.01,29.97,10,8,0,8,3,,0.00,5,Fog,356
2013-7-12,75,68,60,66,63,61,100,90,61,30.14,30.06,30.00,10,9,2,15,4,25,0.22,2,Rain,31
2013-7-13,84,72,59,70,64,59,100,80,54,30.27,30.19,30.12,10,8,0,6,1,,0.01,3,Fog-Rain,65
2013-7-14,87,76,66,66,65,63,100,66,45,30.36,30.31,30.26,10,10,10,14,5,22,0.00,0,,141
2013-7-15,86,75,64,72,67,63,100,76,51,30.42,30.37,30.32,10,10,9,6,1,,0.00,0,,5
2013-7-16,87,76,66,73,69,66,100,82,58,30.41,30.36,30.32,10,10,4,8,1,,0.00,1,,339
2013-7-17,87,76,66,75,71,64,100,83,58,30.38,30.32,30.24,10,9,3,13,2,20,0.00,1,,21
2013-7-18,89,78,68,75,72,66,100,82,55,30.26,30.21,30.13,10,9,4,8,1,,0.00,2,,272
2013-7-19,87,79,71,75,72,64,100,87,62,30.15,30.09,30.00,10,7,2,10,2,25,0.00,0,Rain,225
2013-7-20,86,76,66,72,69,64,100,86,55,30.04,30.00,29.96,10,9,0,14,6,25,0.70,2,Fog-Rain,220
2013-7-21,80,72,64,73,68,64,100,92,61,30.05,30.01,29.98,10,7,0,10,1,,0.01,2,Fog,219
2013-7-22,82,75,68,73,70,68,100,90,66,30.01,29.93,29.85,10,7,0,13,2,,0.04,3,Fog-Rain,227
2013-7-23,80,72,64,70,68,64,100,87,61,29.88,29.84,29.80,10,8,2,13,6,26,0.19,4,Rain,257
2013-7-24,69,63,57,66,61,57,100,88,68,30.02,29.92,29.81,10,8,0,9,4,17,0.00,5,Fog,10
2013-7-25,73,62,51,59,56,52,100,81,53,30.14,30.06,30.00,10,9,0,7,1,,0.00,2,Fog,348
2013-7-26,78,64,51,63,56,52,100,76,44,30.15,30.11,30.06,10,8,3,7,0,,0.00,0,,253
2013-7-27,75,68,62,70,64,61,100,91,69,30.06,29.99,29.93,10,10,4,12,2,18,0.12,2,Rain,202
2013-7-28,75,67,57,64,59,54,100,78,50,30.11,30.01,29.91,10,9,0,15,4,23,0.40,3,Fog-Rain,253
2013-7-29,71,61,51,59,54,52,100,75,50,30.25,30.18,30.12,10,10,1,10,2,,0.00,2,,246
2013-7-30,77,66,55,64,59,55,100,80,53,30.29,30.25,30.21,10,9,4,6,0,,0.00,2,,260
2013-7-31,73,66,60,66,63,61,100,93,65,30.21,30.14,30.03,10,7,0,8,0,,0.02,4,Fog-Rain,233